This demonstration page uses our WeatherBlox Daily Observations layout. Learn more.

Left ArrowRight Arrow

Hourly Observations for August 29, 2015

Temp ( °F °C ) Dew Point ( °F °C ) Humidity (%) Winds ( mph kmh ) Pressure ( in mb ) Visibility ( mi km ) Precip ( " mm )
12:53 am 00:53 Mostly Cloudy 73 22.8 65 18.3 76 76 NNW 14 22 29.92 1013 10 16 0.02 0.51
1:53 am 01:53 Mostly Cloudy 73 22.8 64 17.8 74 74 N 10 17 29.93 1014 10 16 0.00 0.00
2:53 am 02:53 Cloudy 73 22.8 65 18.3 76 76 NE 7 11 29.93 1014 10 16 0.00 0.00
3:53 am 03:53 Cloudy 73 22.8 66 18.9 79 79 N 6 9 29.94 1014 10 16 0.00 0.00
4:53 am 04:53 Cloudy with Light Rain 73 22.8 63 17.2 71 71 NNE 7 11 29.93 1014 10 16 0.00 0.03
5:53 am 05:53 Cloudy 73 22.8 65 18.3 76 76 ESE 6 9 29.91 1013 10 16 0.00 0.03
6:53 am 06:53 Mostly Cloudy 73 22.8 64 17.8 74 74 NE 6 9 29.94 1014 10 16 0.00 0.00
7:53 am 07:53 Cloudy 72 22.2 65 18.3 79 79 N 9 15 29.99 1016 10 16 0.00 0.00
8:53 am 08:53 Cloudy 72 22.2 64 17.8 76 76 NNE 9 15 30.01 1016 10 16 0.00 0.00
9:53 am 09:53 Cloudy 75 23.9 63 17.2 66 66 NE 7 11 30.02 1017 10 16 0.00 0.00
10:53 am 10:53 Mostly Sunny 79 26.1 62 16.7 56 56 ENE 10 17 30.03 1017 10 16 0.00 0.00
11:53 am 11:53 Cloudy 79 26.1 63 17.2 58 58 ENE 7 11 30.03 1017 10 16 0.00 0.00
12:53 pm 12:53 Mostly Cloudy 82 27.8 60 15.6 47 47 VRB 3 6 30.01 1016 10 16 0.00 0.00
1:53 pm 13:53 Mostly Sunny 83 28.3 58 14.4 43 43 Calm 30.00 1016 10 16 0.00 0.00
2:53 pm 14:53 Sunny 85 29.4 58 14.4 40 40 E 8 13 29.98 1015 10 16 0.00 0.00
3:53 pm 15:53 Partly Cloudy 86 30 58 14.4 39 39 SSE 8 13 29.96 1014 10 16 0.00 0.00
4:53 pm 16:53 Mostly Sunny 85 29.4 57 13.9 39 39 ESE 12 19 29.94 1014 10 16 0.00 0.00
5:53 pm 17:53 Cloudy 84 28.9 51 10.6 32 32 ESE 10 17 29.93 1013 10 16 0.00 0.00
6:53 pm 18:53 Sunny 85 29.4 51 10.6 31 31 ESE 9 15 29.92 1013 10 16 0.00 0.00
7:53 pm 19:53 Sunny 82 27.8 55 12.8 40 40 ESE 8 13 29.93 1014 10 16 0.00 0.00
8:53 pm 20:53 Clear 77 25 57 13.9 50 50 E 6 9 29.94 1014 10 16 0.00 0.00
9:53 pm 21:53 Clear 75 23.9 57 13.9 54 54 SE 5 7 29.96 1014 10 16 0.00 0.00
10:53 pm 22:53 Clear 73 22.8 60 15.6 64 64 E 3 6 29.98 1015 10 16 0.00 0.00
11:53 pm 23:53 Clear 71 21.7 59 15 66 66 E 8 13 29.97 1015 10 16 0.00 0.00

Powered by AerisWeather